Weather History for Orangeburg, SC

Change the Weather History Date:

Friday, May 24, 2013

  Actual Average Record
Temperature  
Mean Temperature 69 °F 74 °F  
Max Temperature 83 °F 85 °F 98 °F (1953)
Min Temperature 55 °F 62 °F 48 °F (2002)
Degree Days  
Heating Degree Days 0 0  
Month to date heating degree days 24 10  
Since 1 July heating degree days 2180 2327  
Cooling Degree Days 4 9  
Month to date cooling degree days 126 150  
Year to date cooling degree days 216 235  
Growing Degree Days 20 (Base 50)    
Moisture  
Dew Point 51 °F    
Average Humidity 49    
Maximum Humidity 73    
Minimum Humidity 23    
Precipitation  
Precipitation 0.00 in 0.12 in 1.74 in (1976)
Month to date precipitation 2.58 2.18  
Year to date precipitation 17.38 16.58  
Sea Level Pressure  
Sea Level Pressure 30.00 in    
Wind  
Wind Speed 9 mph (NNW)    
Max Wind Speed 20 mph    
Max Gust Speed 29 mph    
Visibility 10 miles    
Events Rain    
T = Trace of Precipitation, MM = Missing Value Source: NWS Daily Summary

Daily Weather History Graph

Daily Weather History Graph

Search for Another Location

Airport:

Trip Planner

Search our weather history database for the weather conditions in past years. The results will help you decide how hot, cold, wet, or windy it might be!

Date:

Astronomy

May. 24, 2013 Rise Set
Actual Time 6:17 AM EDT 8:23 PM EDT
Civil Twilight 5:49 AM EDT 8:51 PM EDT
Nautical Twilight 5:15 AM EDT 9:25 PM EDT
Astronomical Twilight 4:38 AM EDT 10:02 PM EDT
Moon 8:05 PM EDT (5/24) 5:45 AM EDT (5/24)
Length of Visible Light 15h 01m
Length of Day
14h 05m
Full, 100% of the Moon is Illuminated
May 24
Full
May 25
Full
May 31
Last Quarter
Jun 8
New
Jun 16
First Quarter

Hourly Weather History & Observations

Time (EDT) Temp. Heat Index Dew Point Humidity Pressure Visibility Wind Dir Wind Speed Gust Speed Precip Events Conditions
12:53 AM 70.0 °F - 62.1 °F 76% 29.89 in 10.0 mi WSW 6.9 mph - 0.00 in Rain Light Rain
1:53 AM 71.1 °F - 60.1 °F 68% 29.89 in 10.0 mi WNW 6.9 mph - 0.00 in   Clear
2:53 AM 71.1 °F - 57.9 °F 63% 29.89 in 10.0 mi WNW 8.1 mph - N/A   Clear
3:53 AM 69.1 °F - 55.9 °F 63% 29.89 in 10.0 mi WNW 9.2 mph - N/A   Clear
4:53 AM 68.0 °F - 55.0 °F 63% 29.90 in 10.0 mi NW 5.8 mph - N/A   Clear
5:53 AM 66.0 °F - 55.0 °F 68% 29.91 in 10.0 mi NW 5.8 mph - N/A   Clear
6:53 AM 64.9 °F - 55.0 °F 70% 29.92 in 10.0 mi NW 5.8 mph - N/A   Clear
7:53 AM 68.0 °F - 55.9 °F 65% 29.94 in 10.0 mi NW 8.1 mph - N/A   Clear
8:53 AM 72.0 °F - 55.9 °F 57% 29.96 in 10.0 mi WNW 6.9 mph - N/A   Clear
9:53 AM 75.0 °F - 57.0 °F 53% 29.98 in 10.0 mi NW 9.2 mph - N/A   Clear
10:53 AM 75.9 °F - 55.0 °F 48% 29.99 in 10.0 mi NW 13.8 mph 19.6 mph N/A   Clear
11:53 AM 78.1 °F - 53.1 °F 42% 30.00 in 10.0 mi NW 15.0 mph 21.9 mph N/A   Partly Cloudy
12:53 PM 80.1 °F 80.1 °F 55.0 °F 42% 30.00 in 10.0 mi NW 12.7 mph 20.7 mph N/A   Clear
1:53 PM 82.0 °F 81.4 °F 55.0 °F 39% 30.01 in 10.0 mi North 12.7 mph 20.7 mph N/A   Scattered Clouds
2:53 PM 81.0 °F - 50.0 °F 34% 30.02 in 10.0 mi North 13.8 mph 24.2 mph N/A   Partly Cloudy
3:53 PM 81.0 °F - 46.9 °F 30% 30.03 in 10.0 mi NNW 13.8 mph 23.0 mph N/A   Clear
4:53 PM 81.0 °F - 43.0 °F 26% 30.04 in 10.0 mi North 17.3 mph 27.6 mph N/A   Clear
5:53 PM 81.0 °F - 41.0 °F 24% 30.05 in 10.0 mi North 9.2 mph 18.4 mph N/A   Clear
6:53 PM 78.1 °F - 37.9 °F 24% 30.07 in 10.0 mi NNE 11.5 mph - N/A   Clear
7:53 PM 75.0 °F - 37.0 °F 25% 30.09 in 10.0 mi NNE 8.1 mph - N/A   Clear
8:53 PM 70.0 °F - 37.0 °F 30% 30.12 in 10.0 mi NE 6.9 mph - N/A   Clear
9:53 PM 66.0 °F - 39.0 °F 37% 30.14 in 10.0 mi NE 3.5 mph - N/A   Clear
10:53 PM 59.0 °F - 48.0 °F 67% 30.18 in 10.0 mi Calm Calm - N/A   Clear
11:53 PM 57.0 °F - 46.9 °F 69% 30.18 in 10.0 mi Calm Calm - N/A   Clear